Weather History for Carrollton, GA

Change the Weather History Date:

Sunday, December 22, 2013

  Actual Average Record
Temperature  
Mean Temperature 61 °F -  
Max Temperature 69 °F 53 °F 71 °F (1984)
Min Temperature 53 °F 32 °F 5 °F (1976)
Degree Days  
Heating Degree Days 4    
Growing Degree Days 11 (Base 50)    
Moisture  
Dew Point 58 °F    
Average Humidity 97    
Maximum Humidity 100    
Minimum Humidity 83    
Precipitation  
Precipitation 0.00 in - - ()
Sea Level Pressure  
Sea Level Pressure 30.00 in    
Wind  
Wind Speed 7 mph (South)    
Max Wind Speed 15 mph    
Max Gust Speed 22 mph    
Visibility 8 miles    
Events Rain , Thunderstorm    
Averages and records for this station are not official NWS values.
T = Trace of Precipitation, MM = Missing Value Source: NWS Daily Summary

Daily Weather History Graph

Daily Weather History Graph

Search for Another Location

Airport:

Trip Planner

Search our weather history database for the weather conditions in past years. The results will help you decide how hot, cold, wet, or windy it might be!

Date:

Astronomy

Dec. 22, 2013 Rise Set
Actual Time 7:41 AM EST 5:37 PM EST
Civil Twilight 7:14 AM EST 6:04 PM EST
Nautical Twilight 6:42 AM EST 6:35 PM EST
Astronomical Twilight 6:12 AM EST 7:06 PM EST
Moon 10:35 PM EST (12/22) 10:50 AM EST (12/22)
Length of Visible Light 10h 50m
Length of Day
9h 55m
Waning Gibbous, 77% of the Moon is Illuminated
Dec 22
Waning Gibbous
Dec 25
Last Quarter
Jan 1
New
Jan 7
First Quarter
Jan 15
Full

Hourly Weather History & Observations

Time (EST) Temp. Dew Point Humidity Pressure Visibility Wind Dir Wind Speed Gust Speed Precip Events Conditions
12:15 AM 69.8 °F 66.2 °F 88% 29.95 in 10.0 mi South 11.5 mph 18.4 mph N/A   Overcast
12:35 AM 69.8 °F 66.2 °F 88% 29.95 in 10.0 mi South 13.8 mph 21.9 mph N/A   Overcast
12:55 AM 68.0 °F 66.2 °F 94% 29.95 in 10.0 mi South 11.5 mph 17.3 mph N/A   Drizzle
1:15 AM 68.0 °F 66.2 °F 94% 29.94 in 10.0 mi South 9.2 mph - N/A   Drizzle
1:35 AM 68.0 °F 66.2 °F 94% 29.93 in 10.0 mi South 11.5 mph 19.6 mph N/A   Overcast
1:55 AM 68.0 °F 66.2 °F 94% 29.93 in 10.0 mi South 11.5 mph 19.6 mph N/A   Overcast
2:15 AM 68.0 °F 66.2 °F 94% 29.93 in 10.0 mi South 13.8 mph 17.3 mph N/A   Overcast
2:35 AM 68.0 °F 66.2 °F 94% 29.92 in 10.0 mi South 12.7 mph 20.7 mph N/A   Overcast
2:55 AM 68.0 °F 66.2 °F 94% 29.91 in 10.0 mi South 11.5 mph 19.6 mph N/A   Overcast
3:15 AM 69.8 °F 66.2 °F 88% 29.90 in 10.0 mi South 9.2 mph 16.1 mph N/A   Overcast
3:35 AM 69.8 °F 64.4 °F 83% 29.90 in 10.0 mi South 11.5 mph 21.9 mph N/A   Overcast
3:55 AM 69.8 °F 64.4 °F 83% 29.90 in 10.0 mi South 11.5 mph 19.6 mph N/A   Overcast
4:15 AM 69.8 °F 64.4 °F 83% 29.90 in 10.0 mi South 10.4 mph 20.7 mph N/A   Light Drizzle
4:35 AM 69.8 °F 64.4 °F 83% 29.91 in 10.0 mi South 12.7 mph 19.6 mph N/A   Light Drizzle
4:55 AM 68.0 °F 66.2 °F 94% 29.90 in 10.0 mi South 10.4 mph - N/A   Light Drizzle
5:15 AM 68.0 °F 66.2 °F 94% 29.90 in 10.0 mi South 8.1 mph - N/A   Light Drizzle
5:35 AM 68.0 °F 66.2 °F 94% 29.91 in 10.0 mi South 8.1 mph - N/A   Overcast
5:55 AM 68.0 °F 66.2 °F 94% 29.90 in 10.0 mi South 8.1 mph - N/A   Overcast
6:15 AM 68.0 °F 66.2 °F 94% 29.90 in 10.0 mi South 12.7 mph 16.1 mph N/A   Overcast
6:35 AM 68.0 °F 66.2 °F 94% 29.93 in 10.0 mi SSW 10.4 mph 16.1 mph N/A Thunderstorm Thunderstorm
6:55 AM 60.8 °F 59.0 °F 94% 29.93 in 4.0 mi NW 15.0 mph 21.9 mph N/A Rain Heavy Rain
7:15 AM 59.0 °F 57.2 °F 94% 29.97 in 2.0 mi NNW 6.9 mph - N/A Rain , Thunderstorm Heavy Thunderstorms and Rain
7:35 AM 57.2 °F 55.4 °F 94% 29.98 in 4.0 mi NNW 8.1 mph - N/A Rain , Thunderstorm Thunderstorms and Rain
7:55 AM 55.4 °F 55.4 °F 100% 29.98 in 3.0 mi NNW 5.8 mph - N/A Rain , Thunderstorm Heavy Thunderstorms and Rain
8:15 AM 55.4 °F 55.4 °F 100% 30.01 in 7.0 mi WNW 6.9 mph - N/A Rain Heavy Rain
8:35 AM 55.4 °F 55.4 °F 100% 29.98 in 3.0 mi East 5.8 mph - N/A Rain , Thunderstorm Rain
8:55 AM 55.4 °F 55.4 °F 100% 30.02 in 3.0 mi Calm Calm - N/A Rain Rain
9:15 AM 55.4 °F 55.4 °F 100% 30.02 in 4.0 mi Calm Calm - N/A Rain , Thunderstorm Rain
9:35 AM 55.4 °F 55.4 °F 100% 30.04 in 3.0 mi Calm Calm - N/A Rain , Thunderstorm Rain
9:55 AM 55.4 °F 55.4 °F 100% 30.04 in 4.0 mi North 3.5 mph - N/A Rain , Thunderstorm Thunderstorms and Rain
10:15 AM 55.4 °F 55.4 °F 100% 30.05 in 10.0 mi Calm Calm - N/A Rain Rain
10:35 AM 55.4 °F 55.4 °F 100% 30.07 in 5.0 mi Calm Calm - N/A Rain Rain
10:55 AM 55.4 °F 53.6 °F 94% 30.05 in 7.0 mi Calm Calm - N/A Rain , Thunderstorm Light Thunderstorms and Rain
11:15 AM 55.4 °F 53.6 °F 94% 30.01 in 10.0 mi NE 3.5 mph - N/A Rain Rain
11:35 AM 55.4 °F 55.4 °F 100% 30.04 in 10.0 mi SSE 5.8 mph - N/A Rain Light Rain
11:55 AM 55.4 °F 55.4 °F 100% 30.03 in 10.0 mi SE 5.8 mph - N/A Rain Light Rain
12:15 PM 55.4 °F 55.4 °F 100% 30.03 in 10.0 mi SE 3.5 mph - N/A Rain Rain
12:35 PM 55.4 °F 55.4 °F 100% 30.04 in 4.0 mi Calm Calm - N/A Rain Heavy Rain
12:55 PM 55.4 °F 55.4 °F 100% 30.05 in 5.0 mi South 4.6 mph - N/A Rain Rain
1:15 PM 55.4 °F 55.4 °F 100% 30.04 in 7.0 mi South 3.5 mph - N/A Rain Light Rain
1:35 PM 55.4 °F 55.4 °F 100% 30.02 in 10.0 mi Calm Calm - N/A Rain Rain
1:55 PM 55.4 °F 55.4 °F 100% 30.00 in 7.0 mi Calm Calm - N/A Rain Rain
2:15 PM 55.4 °F 55.4 °F 100% 30.01 in 10.0 mi Calm Calm - N/A Rain Light Rain
2:35 PM 57.2 °F 57.2 °F 100% 30.02 in 5.0 mi SSE 5.8 mph - N/A Rain Rain
2:55 PM 57.2 °F 57.2 °F 100% 30.04 in 5.0 mi SSE 4.6 mph - N/A Rain Rain
3:15 PM 55.4 °F 55.4 °F 100% 30.00 in 7.0 mi Calm Calm - N/A Rain Rain
3:35 PM 55.4 °F 55.4 °F 100% 30.00 in 10.0 mi Calm Calm - N/A Rain Light Rain
3:55 PM 55.4 °F 55.4 °F 100% 30.02 in 5.0 mi Calm Calm - N/A Rain Rain
4:15 PM 55.4 °F 55.4 °F 100% 30.00 in 10.0 mi Calm Calm - N/A Rain Light Rain
4:35 PM 55.4 °F 55.4 °F 100% 30.02 in 7.0 mi Calm Calm - N/A Rain Rain
4:55 PM 55.4 °F 55.4 °F 100% 30.03 in 5.0 mi Calm Calm - N/A Rain Rain
5:15 PM 55.4 °F 55.4 °F 100% 30.00 in 4.0 mi Calm Calm - N/A Rain Rain
5:35 PM 55.4 °F 55.4 °F 100% 30.02 in 4.0 mi Calm Calm - N/A Rain Heavy Rain
5:55 PM 55.4 °F 55.4 °F 100% 30.03 in 7.0 mi Calm Calm - N/A Rain Light Rain
6:15 PM 55.4 °F 55.4 °F 100% 30.03 in 7.0 mi Calm Calm - N/A Rain Rain
6:35 PM 55.4 °F 55.4 °F 100% 30.05 in 7.0 mi NW 3.5 mph - N/A Rain Rain
6:55 PM 55.4 °F 55.4 °F 100% 30.04 in 7.0 mi Calm Calm - N/A Rain Rain
7:15 PM 55.4 °F 55.4 °F 100% 30.05 in 5.0 mi Calm Calm - N/A Rain Rain
7:35 PM 55.4 °F 55.4 °F 100% 30.02 in 2.5 mi Calm Calm - N/A Rain Rain
7:55 PM 55.4 °F 55.4 °F 100% 30.03 in 5.0 mi Calm Calm - N/A Rain Rain
8:15 PM 55.4 °F 55.4 °F 100% 30.05 in 5.0 mi Calm Calm - N/A Rain Rain
8:35 PM 55.4 °F 55.4 °F 100% 30.07 in 5.0 mi Calm Calm - N/A Rain Rain
8:55 PM 55.4 °F 55.4 °F 100% 30.09 in 5.0 mi Calm Calm - N/A Rain Rain
9:15 PM 55.4 °F 55.4 °F 100% 30.09 in 7.0 mi Calm Calm - N/A Rain Rain
9:35 PM 53.6 °F 53.6 °F 100% 30.09 in 10.0 mi Calm Calm - N/A Rain Light Rain
9:55 PM 53.6 °F 53.6 °F 100% 30.09 in 10.0 mi NW 3.5 mph - N/A Rain , Thunderstorm Light Thunderstorms and Rain
10:15 PM 53.6 °F 53.6 °F 100% 30.08 in 10.0 mi Calm Calm - N/A   Mostly Cloudy
10:35 PM 53.6 °F 53.6 °F 100% 30.08 in 10.0 mi ESE 3.5 mph - N/A   Overcast
10:55 PM 53.6 °F 53.6 °F 100% 30.07 in 10.0 mi Calm Calm - N/A   Overcast
11:15 PM 53.6 °F 53.6 °F 100% 30.08 in 10.0 mi Calm Calm - N/A   Overcast
11:35 PM 53.6 °F 53.6 °F 100% 30.11 in 10.0 mi Calm Calm - N/A   Overcast
11:55 PM 53.6 °F 53.6 °F 100% 30.10 in 10.0 mi NW 4.6 mph - N/A Rain Light Rain